JAL575 RJTT-RJCB

Flight info

Callsign JAL575
Flight time 1h 19m
Altitude 37000
Route BRUCE AGRIS Y11 YTE Y111 IGDIP Y110 OBE
Aircraft B738/M-SDE2E3FGHIRWXY/LB1

Departure

Time 2026-05-05 03:11
Airport Tokyo Haneda International Airport (RJTT)

Arrival

Time 2026-05-05 04:30
Airport Tokachi-Obihiro Airport (RJCB)
Time Latitude Longitude Altitude Speed Heading
2026-05-05 02:37 35.55057 139.78107 28 ft 0 kts 22°
2026-05-05 02:56 35.55046 139.78101 28 ft 2 kts 22°
2026-05-05 02:57 35.55031 139.78094 27 ft 2 kts 22°
2026-05-05 02:57 35.55015 139.78086 28 ft 2 kts 22°
2026-05-05 02:57 35.55000 139.78079 27 ft 2 kts 22°
2026-05-05 02:57 35.54985 139.78071 25 ft 2 kts 21°
2026-05-05 02:58 35.54970 139.78064 25 ft 2 kts 21°
2026-05-05 02:58 35.54954 139.78057 25 ft 2 kts 19°
2026-05-05 02:58 35.54939 139.78051 25 ft 2 kts 10°
2026-05-05 02:58 35.54927 139.78050 26 ft 0 kts 334°
2026-05-05 02:59 35.54927 139.78051 26 ft 0 kts 334°
2026-05-05 03:00 35.54929 139.78049 23 ft 2 kts 333°
2026-05-05 03:00 35.54953 139.78032 25 ft 7 kts 329°
2026-05-05 03:00 35.55011 139.77989 25 ft 13 kts 329°
2026-05-05 03:00 35.55102 139.77924 25 ft 17 kts 330°
2026-05-05 03:01 35.55219 139.77842 24 ft 21 kts 332°
2026-05-05 03:01 35.55362 139.77755 24 ft 25 kts 336°
2026-05-05 03:01 35.55516 139.77634 26 ft 28 kts 329°
2026-05-05 03:01 35.55673 139.77525 24 ft 25 kts 332°
2026-05-05 03:02 35.55813 139.77419 22 ft 23 kts 319°
2026-05-05 03:02 35.55767 139.77273 22 ft 22 kts 217°
2026-05-05 03:02 35.55695 139.77214 23 ft 11 kts 214°
2026-05-05 03:02 35.55635 139.77164 25 ft 10 kts 214°
2026-05-05 03:03 35.55578 139.77114 25 ft 10 kts 218°
2026-05-05 03:03 35.55529 139.77048 22 ft 10 kts 241°
2026-05-05 03:03 35.55526 139.76963 22 ft 10 kts 243°
2026-05-05 03:03 35.55482 139.76895 23 ft 10 kts 217°
2026-05-05 03:04 35.55426 139.76847 23 ft 10 kts 214°
2026-05-05 03:04 35.55381 139.76808 23 ft 10 kts 215°
2026-05-05 03:06 35.55354 139.76784 23 ft 9 kts 215°
2026-05-05 03:07 35.55301 139.76738 23 ft 9 kts 215°
2026-05-05 03:07 35.55250 139.76694 23 ft 9 kts 215°
2026-05-05 03:07 35.55200 139.76650 23 ft 9 kts 215°
2026-05-05 03:07 35.55151 139.76608 23 ft 8 kts 214°
2026-05-05 03:08 35.55101 139.76575 24 ft 8 kts 207°
2026-05-05 03:08 35.55057 139.76532 24 ft 8 kts 219°
2026-05-05 03:08 35.55013 139.76495 24 ft 8 kts 213°
2026-05-05 03:08 35.54970 139.76460 23 ft 7 kts 214°
2026-05-05 03:09 35.54929 139.76425 23 ft 7 kts 214°
2026-05-05 03:09 35.54887 139.76387 23 ft 8 kts 217°
2026-05-05 03:09 35.54845 139.76343 23 ft 8 kts 227°
2026-05-05 03:09 35.54836 139.76276 22 ft 9 kts 294°
2026-05-05 03:10 35.54867 139.76212 24 ft 9 kts 305°
2026-05-05 03:10 35.54911 139.76163 27 ft 9 kts 341°
2026-05-05 03:10 35.55002 139.76216 24 ft 41 kts 31°
2026-05-05 03:10 35.55501 139.76638 27 ft 130 kts 34°
2026-05-05 03:11 35.56460 139.77444 85 ft 198 kts 35°
2026-05-05 03:11 35.57616 139.78416 849 ft 200 kts 34°
2026-05-05 03:11 35.58541 139.79559 1799 ft 186 kts 55°
2026-05-05 03:11 35.59305 139.80834 2789 ft 187 kts 50°
2026-05-05 03:12 35.60125 139.82108 3697 ft 193 kts 50°
2026-05-05 03:12 35.60895 139.83520 4243 ft 214 kts 69°
2026-05-05 03:12 35.61022 139.85470 4500 ft 245 kts 91°
2026-05-05 03:12 35.60971 139.87685 4841 ft 271 kts 89°
2026-05-05 03:13 35.60948 139.90039 5581 ft 277 kts 89°
2026-05-05 03:13 35.61009 139.92380 6473 ft 279 kts 77°
2026-05-05 03:13 35.61828 139.94508 7273 ft 277 kts 46°
2026-05-05 03:13 35.63362 139.95891 8078 ft 275 kts 19°
2026-05-05 03:14 35.65216 139.96389 8872 ft 272 kts
2026-05-05 03:14 35.67115 139.96498 9631 ft 274 kts 360°
2026-05-05 03:14 35.69036 139.96590 10337 ft 277 kts 360°
2026-05-05 03:14 35.70986 139.96696 10805 ft 281 kts 360°
2026-05-05 03:15 35.72929 139.96802 11260 ft 278 kts 356°
2026-05-05 03:15 35.74779 139.96359 11706 ft 275 kts 337°
2026-05-05 03:15 35.76568 139.95504 12202 ft 276 kts 336°
2026-05-05 03:15 35.78366 139.94643 12679 ft 277 kts 336°
2026-05-05 03:16 35.80169 139.93785 13166 ft 278 kts 336°
2026-05-05 03:16 35.81977 139.92928 13665 ft 278 kts 336°
2026-05-05 03:16 35.83795 139.92070 14102 ft 280 kts 336°
2026-05-05 03:16 35.85594 139.91222 14382 ft 280 kts 336°
2026-05-05 03:17 35.87433 139.90356 14480 ft 284 kts 336°
2026-05-05 03:17 35.89278 139.89488 14486 ft 282 kts 336°
2026-05-05 03:17 35.91113 139.88625 14500 ft 281 kts 336°
2026-05-05 03:17 35.92933 139.87768 14497 ft 280 kts 336°
2026-05-05 03:18 35.94747 139.86913 14491 ft 279 kts 336°
2026-05-05 03:18 35.96584 139.86046 14510 ft 292 kts 336°
2026-05-05 03:18 35.98630 139.85432 14491 ft 325 kts 355°
2026-05-05 03:18 36.00968 139.85836 14497 ft 353 kts 12°
2026-05-05 03:19 36.05717 139.88064 15061 ft 372 kts 17°
2026-05-05 03:19 36.08088 139.89240 16105 ft 362 kts 16°
2026-05-05 03:19 36.10424 139.90376 17006 ft 359 kts 15°
2026-05-05 03:20 36.12766 139.91489 17687 ft 362 kts 15°
2026-05-05 03:20 36.15147 139.92604 18283 ft 368 kts 15°
2026-05-05 03:20 36.17555 139.93731 18828 ft 372 kts 15°
2026-05-05 03:20 36.20012 139.94768 19328 ft 372 kts
2026-05-05 03:21 36.22563 139.94944 19844 ft 366 kts 352°
2026-05-05 03:21 36.25086 139.94824 20389 ft 369 kts 352°
2026-05-05 03:21 36.27673 139.94706 20918 ft 373 kts 352°
2026-05-05 03:21 36.30291 139.94603 21429 ft 378 kts 352°
2026-05-05 03:22 36.32929 139.94515 22085 ft 378 kts 352°
2026-05-05 03:22 36.35562 139.94438 22696 ft 379 kts 351°
2026-05-05 03:22 36.38224 139.94361 23149 ft 384 kts 351°
2026-05-05 03:22 36.40882 139.94283 23605 ft 389 kts 351°
2026-05-05 03:23 36.43603 139.94247 24030 ft 394 kts 353°
2026-05-05 03:23 36.46362 139.94332 24390 ft 400 kts 354°
2026-05-05 03:23 36.49162 139.94469 24733 ft 405 kts 354°
2026-05-05 03:23 36.51992 139.94616 25123 ft 408 kts 354°
2026-05-05 03:24 36.54840 139.94762 25517 ft 411 kts 354°
2026-05-05 03:24 36.56748 139.94856 25739 ft 414 kts 354°
2026-05-05 03:24 36.59643 139.94991 26066 ft 418 kts 353°
2026-05-05 03:24 36.62567 139.95121 26404 ft 422 kts 353°
2026-05-05 03:25 36.65521 139.95248 26734 ft 426 kts 353°
2026-05-05 03:25 36.68498 139.95376 27061 ft 430 kts 353°
2026-05-05 03:25 36.71504 139.95505 27389 ft 434 kts 353°
2026-05-05 03:25 36.74541 139.95636 27698 ft 438 kts 353°
2026-05-05 03:26 36.77605 139.95769 28035 ft 441 kts 353°
2026-05-05 03:26 36.80683 139.95902 28359 ft 444 kts 353°
2026-05-05 03:26 36.83786 139.96036 28652 ft 448 kts 353°
2026-05-05 03:26 36.86875 139.96180 28961 ft 452 kts 354°
2026-05-05 03:27 36.90037 139.96666 29301 ft 465 kts
2026-05-05 03:27 36.93217 139.97529 29687 ft 468 kts
2026-05-05 03:27 36.96406 139.98443 29938 ft 472 kts
2026-05-05 03:27 36.99632 139.99324 30162 ft 475 kts
2026-05-05 03:28 37.02885 140.00174 30393 ft 478 kts
2026-05-05 03:28 37.06147 140.01009 30643 ft 480 kts
2026-05-05 03:28 37.09438 140.01851 30906 ft 482 kts
2026-05-05 03:28 37.12723 140.02694 31219 ft 481 kts
2026-05-05 03:29 37.15958 140.03523 31522 ft 481 kts
2026-05-05 03:29 37.19237 140.04370 31804 ft 482 kts
2026-05-05 03:29 37.22525 140.05224 32101 ft 482 kts
2026-05-05 03:29 37.25815 140.06079 32418 ft 481 kts
2026-05-05 03:30 37.29099 140.06932 32698 ft 482 kts
2026-05-05 03:30 37.32376 140.07783 33215 ft 477 kts
2026-05-05 03:30 37.35611 140.08629 33655 ft 474 kts
2026-05-05 03:30 37.38852 140.09471 33801 ft 477 kts
2026-05-05 03:31 37.42125 140.10315 33934 ft 481 kts
2026-05-05 03:31 37.45416 140.11168 34204 ft 481 kts
2026-05-05 03:31 37.48648 140.12011 34480 ft 480 kts
2026-05-05 03:31 37.51915 140.12864 34742 ft 479 kts
2026-05-05 03:32 37.55185 140.13717 35025 ft 478 kts
2026-05-05 03:32 37.58456 140.14565 35267 ft 479 kts
2026-05-05 03:32 37.61727 140.15414 35459 ft 480 kts
2026-05-05 03:32 37.65001 140.16260 35663 ft 480 kts
2026-05-05 03:33 37.68279 140.17115 35895 ft 480 kts
2026-05-05 03:33 37.71549 140.17975 36122 ft 480 kts
2026-05-05 03:33 37.74822 140.18836 36344 ft 481 kts
2026-05-05 03:33 37.78100 140.19696 36571 ft 480 kts
2026-05-05 03:34 37.81371 140.20558 36811 ft 480 kts
2026-05-05 03:34 37.84594 140.21406 37004 ft 479 kts
2026-05-05 03:34 37.87868 140.22262 37137 ft 480 kts
2026-05-05 03:34 37.91140 140.23129 37170 ft 480 kts
2026-05-05 03:35 37.97696 140.24863 37175 ft 481 kts
2026-05-05 03:35 38.04231 140.26594 37170 ft 478 kts
2026-05-05 03:36 38.10732 140.28310 37153 ft 475 kts
2026-05-05 03:36 38.17152 140.30010 37176 ft 474 kts
2026-05-05 03:37 38.23596 140.31721 37168 ft 472 kts
2026-05-05 03:37 38.30027 140.33433 37155 ft 472 kts
2026-05-05 03:38 38.36448 140.35315 37174 ft 482 kts
2026-05-05 03:38 38.39575 140.37007 37168 ft 495 kts 19°
2026-05-05 03:38 38.42530 140.39345 37151 ft 507 kts 30°
2026-05-05 03:39 38.48013 140.45073 37147 ft 511 kts 34°
2026-05-05 03:39 38.53403 140.50950 37161 ft 507 kts 33°
2026-05-05 03:40 38.58810 140.56782 37169 ft 508 kts 32°
2026-05-05 03:40 38.64264 140.62544 37156 ft 508 kts 32°
2026-05-05 03:41 38.69726 140.68289 37149 ft 507 kts 32°
2026-05-05 03:41 38.75123 140.74023 37144 ft 507 kts 32°
2026-05-05 03:42 38.80563 140.79780 37182 ft 507 kts 32°
2026-05-05 03:42 38.85991 140.85593 37153 ft 509 kts 32°
2026-05-05 03:43 38.91439 140.91431 37138 ft 509 kts 32°
2026-05-05 03:43 38.96892 140.97271 37136 ft 511 kts 32°
2026-05-05 03:44 39.02349 141.03123 37128 ft 510 kts 33°
2026-05-05 03:44 39.07787 141.08978 37128 ft 509 kts 33°
2026-05-05 03:45 39.13179 141.14784 37128 ft 507 kts 33°
2026-05-05 03:45 39.18586 141.20619 37126 ft 505 kts 33°
2026-05-05 03:46 39.23973 141.26445 37140 ft 504 kts 33°
2026-05-05 03:46 39.29313 141.32232 37120 ft 503 kts 33°
2026-05-05 03:47 39.34679 141.38061 37148 ft 501 kts 33°
2026-05-05 03:47 39.40015 141.43871 37132 ft 501 kts 33°
2026-05-05 03:48 39.45302 141.49636 37110 ft 498 kts 33°
2026-05-05 03:48 39.50590 141.55420 37105 ft 497 kts 33°
2026-05-05 03:49 39.55879 141.61215 37097 ft 496 kts 33°
2026-05-05 03:49 39.61135 141.66970 37100 ft 493 kts 33°
2026-05-05 03:50 39.66333 141.72691 37100 ft 490 kts 34°
2026-05-05 03:50 39.71586 141.78425 37099 ft 498 kts 34°
2026-05-05 03:51 39.76878 141.84270 37108 ft 499 kts 34°
2026-05-05 03:51 39.82178 141.90189 37112 ft 504 kts 34°
2026-05-05 03:52 39.87373 141.96394 37067 ft 511 kts 44°
2026-05-05 03:52 39.91567 142.03827 37090 ft 507 kts 50°
2026-05-05 03:53 39.95544 142.11343 37110 ft 506 kts 50°
2026-05-05 03:53 39.99570 142.18866 37097 ft 506 kts 50°
2026-05-05 03:54 40.03629 142.26359 37092 ft 506 kts 50°
2026-05-05 03:54 40.07707 142.33876 37095 ft 507 kts 50°
2026-05-05 03:55 40.11785 142.41413 37100 ft 508 kts 50°
2026-05-05 03:55 40.15869 142.48985 37094 ft 510 kts 50°
2026-05-05 03:56 40.19929 142.56536 37120 ft 511 kts 50°
2026-05-05 03:56 40.24023 142.64169 37107 ft 512 kts 50°
2026-05-05 03:57 40.28113 142.71813 37097 ft 512 kts 50°
2026-05-05 03:57 40.32203 142.79475 37104 ft 512 kts 50°
2026-05-05 03:58 40.36255 142.87084 37094 ft 511 kts 50°
2026-05-05 03:58 40.40325 142.94745 37086 ft 507 kts 50°
2026-05-05 03:59 40.42287 142.98452 37068 ft 493 kts 50°
2026-05-05 03:59 40.44211 143.02096 37064 ft 478 kts 50°
2026-05-05 03:59 40.47946 143.09158 37094 ft 469 kts 50°
2026-05-05 04:00 40.51711 143.16272 37112 ft 478 kts 50°
2026-05-05 04:00 40.55522 143.23499 37085 ft 478 kts 48°
2026-05-05 04:01 40.57679 143.26725 36670 ft 464 kts 34°
2026-05-05 04:01 40.60261 143.29222 35842 ft 460 kts 21°
2026-05-05 04:01 40.63102 143.30980 35145 ft 452 kts
2026-05-05 04:01 40.66085 143.32125 34744 ft 444 kts
2026-05-05 04:02 40.69042 143.33222 34501 ft 437 kts
2026-05-05 04:02 40.71935 143.34306 34320 ft 428 kts
2026-05-05 04:02 40.74786 143.35387 33983 ft 425 kts
2026-05-05 04:02 40.77624 143.36470 33513 ft 423 kts
2026-05-05 04:03 40.80430 143.37551 33201 ft 417 kts
2026-05-05 04:03 40.83192 143.38623 32908 ft 410 kts
2026-05-05 04:03 40.85916 143.39683 32583 ft 405 kts
2026-05-05 04:03 40.88603 143.40730 32252 ft 400 kts
2026-05-05 04:04 40.91260 143.41765 31926 ft 395 kts
2026-05-05 04:04 40.93879 143.42787 31615 ft 390 kts
2026-05-05 04:04 40.96437 143.43785 31276 ft 387 kts
2026-05-05 04:04 40.99005 143.44787 30948 ft 382 kts
2026-05-05 04:05 41.01544 143.45779 30655 ft 377 kts
2026-05-05 04:05 41.04045 143.46759 30379 ft 372 kts
2026-05-05 04:05 41.06513 143.47726 30088 ft 367 kts
2026-05-05 04:05 41.08945 143.48679 29703 ft 363 kts
2026-05-05 04:06 41.11362 143.49626 29264 ft 360 kts
2026-05-05 04:06 41.13727 143.50552 28828 ft 357 kts
2026-05-05 04:06 41.16103 143.51484 28432 ft 353 kts
2026-05-05 04:06 41.18441 143.52404 28130 ft 348 kts
2026-05-05 04:07 41.20774 143.53320 27593 ft 349 kts
2026-05-05 04:07 41.23108 143.54236 27075 ft 349 kts
2026-05-05 04:07 41.25439 143.55152 26561 ft 349 kts
2026-05-05 04:07 41.27770 143.56069 26055 ft 349 kts
2026-05-05 04:08 41.30080 143.56980 25561 ft 349 kts
2026-05-05 04:08 41.32409 143.57899 25071 ft 349 kts
2026-05-05 04:08 41.34739 143.58820 24586 ft 348 kts
2026-05-05 04:08 41.37044 143.59734 24351 ft 340 kts
2026-05-05 04:09 41.39270 143.60623 24322 ft 328 kts
2026-05-05 04:09 41.41424 143.61481 24188 ft 318 kts
2026-05-05 04:09 41.43525 143.62315 23896 ft 313 kts
2026-05-05 04:09 41.45613 143.63139 23511 ft 312 kts
2026-05-05 04:10 41.46997 143.63685 23213 ft 312 kts
2026-05-05 04:10 41.49754 143.64775 22612 ft 311 kts
2026-05-05 04:10 41.51826 143.65596 22178 ft 310 kts
2026-05-05 04:10 41.53224 143.66151 21887 ft 310 kts
2026-05-05 04:11 41.55262 143.66961 21478 ft 309 kts
2026-05-05 04:11 41.57324 143.67781 21068 ft 308 kts
2026-05-05 04:11 41.59377 143.68599 20662 ft 308 kts
2026-05-05 04:11 41.61423 143.69414 20271 ft 307 kts
2026-05-05 04:12 41.63471 143.70231 19905 ft 306 kts
2026-05-05 04:12 41.65515 143.71047 19512 ft 306 kts
2026-05-05 04:12 41.67566 143.71762 19110 ft 299 kts 359°
2026-05-05 04:12 41.69611 143.71783 18732 ft 290 kts 347°
2026-05-05 04:13 41.71556 143.71217 18365 ft 284 kts 337°
2026-05-05 04:13 41.73420 143.70354 17954 ft 282 kts 335°
2026-05-05 04:13 41.75243 143.69470 17571 ft 281 kts 335°
2026-05-05 04:13 41.77084 143.68574 17188 ft 280 kts 335°
2026-05-05 04:14 41.78912 143.67690 16811 ft 279 kts 335°
2026-05-05 04:14 41.80739 143.66813 16428 ft 278 kts 335°
2026-05-05 04:14 41.82561 143.65941 16064 ft 278 kts 336°
2026-05-05 04:14 41.84381 143.65072 15706 ft 277 kts 336°
2026-05-05 04:15 41.86198 143.64206 15351 ft 276 kts 336°
2026-05-05 04:15 41.87984 143.63355 15002 ft 275 kts 336°
2026-05-05 04:15 41.89787 143.62497 14667 ft 274 kts 336°
2026-05-05 04:15 41.91581 143.61643 14320 ft 273 kts 336°
2026-05-05 04:16 41.93371 143.60790 13976 ft 273 kts 336°
2026-05-05 04:16 41.95160 143.59937 13610 ft 272 kts 336°
2026-05-05 04:16 41.96942 143.59087 13237 ft 271 kts 336°
2026-05-05 04:16 41.98719 143.58241 12863 ft 271 kts 336°
2026-05-05 04:17 42.00491 143.57396 12507 ft 270 kts 336°
2026-05-05 04:17 42.02263 143.56552 12198 ft 267 kts 336°
2026-05-05 04:17 42.04006 143.55721 11869 ft 266 kts 336°
2026-05-05 04:17 42.05755 143.54886 11478 ft 266 kts 336°
2026-05-05 04:18 42.07501 143.54051 11082 ft 268 kts 336°
2026-05-05 04:18 42.09237 143.53221 10734 ft 267 kts 336°
2026-05-05 04:18 42.10993 143.52381 10414 ft 266 kts 336°
2026-05-05 04:18 42.12718 143.51557 10277 ft 258 kts 336°
2026-05-05 04:19 42.14385 143.50761 10142 ft 251 kts 336°
2026-05-05 04:19 42.14607 143.50655 10117 ft 250 kts 336°
2026-05-05 04:20 42.15648 143.50156 9928 ft 249 kts 336°
2026-05-05 04:20 42.17278 143.49374 9658 ft 247 kts 336°
2026-05-05 04:20 42.18896 143.48599 9370 ft 246 kts 335°
2026-05-05 04:20 42.20482 143.47833 9086 ft 244 kts 334°
2026-05-05 04:21 42.22081 143.47058 8784 ft 243 kts 334°
2026-05-05 04:21 42.23666 143.46290 8507 ft 241 kts 334°
2026-05-05 04:21 42.25239 143.45527 8241 ft 239 kts 333°
2026-05-05 04:21 42.26798 143.44770 7972 ft 237 kts 333°
2026-05-05 04:22 42.28341 143.44021 7726 ft 235 kts 333°
2026-05-05 04:22 42.29878 143.43274 7474 ft 232 kts 333°
2026-05-05 04:22 42.31393 143.42537 7214 ft 230 kts 332°
2026-05-05 04:22 42.32876 143.41816 6972 ft 228 kts 332°
2026-05-05 04:23 42.34367 143.41090 6729 ft 227 kts 332°
2026-05-05 04:23 42.35845 143.40369 6489 ft 225 kts 332°
2026-05-05 04:23 42.37318 143.39651 6237 ft 223 kts 331°
2026-05-05 04:23 42.38774 143.38941 5990 ft 222 kts 331°
2026-05-05 04:24 42.40222 143.38175 5766 ft 225 kts 333°
2026-05-05 04:24 42.41731 143.37444 5516 ft 235 kts 335°
2026-05-05 04:24 42.43279 143.36710 5260 ft 236 kts 335°
2026-05-05 04:25 42.46368 143.35230 4701 ft 236 kts 335°
2026-05-05 04:25 42.47909 143.34488 4417 ft 235 kts 334°
2026-05-05 04:25 42.49442 143.33743 4220 ft 231 kts 334°
2026-05-05 04:25 42.50933 143.33019 4069 ft 221 kts 334°
2026-05-05 04:26 42.52347 143.32330 3860 ft 212 kts 334°
2026-05-05 04:26 42.53719 143.31658 3633 ft 208 kts 333°
2026-05-05 04:26 42.55078 143.31003 3430 ft 208 kts 338°
2026-05-05 04:26 42.56452 143.30411 3211 ft 206 kts 335°
2026-05-05 04:27 42.57799 143.29746 3016 ft 206 kts 334°
2026-05-05 04:27 42.59131 143.29037 2824 ft 206 kts 334°
2026-05-05 04:27 42.60462 143.28392 2643 ft 202 kts 323°
2026-05-05 04:27 42.61572 143.27271 2457 ft 200 kts 324°
2026-05-05 04:28 42.62964 143.26785 2143 ft 214 kts 347°
2026-05-05 04:28 42.64389 143.26367 2011 ft 203 kts 338°
2026-05-05 04:28 42.65676 143.25715 1841 ft 195 kts 325°
2026-05-05 04:28 42.66879 143.24918 1579 ft 196 kts 340°
2026-05-05 04:29 42.68165 143.24503 1719 ft 179 kts 340°
2026-05-05 04:29 42.69378 143.23969 1416 ft 189 kts 327°
2026-05-05 04:29 42.70547 143.23117 1025 ft 191 kts 334°
2026-05-05 04:29 42.71758 143.22538 675 ft 184 kts 338°
2026-05-05 04:30 42.72872 143.21996 526 ft 156 kts 334°
2026-05-05 04:30 42.73759 143.21528 489 ft 97 kts 343°
2026-05-05 04:30 42.73991 143.21414 481 ft 5 kts 339°
2026-05-05 04:30 42.74025 143.21396 483 ft 7 kts 338°
2026-05-05 04:31 42.74081 143.21366 485 ft 11 kts 339°
2026-05-05 04:31 42.74169 143.21321 484 ft 16 kts 340°
2026-05-05 04:31 42.74290 143.21263 482 ft 20 kts 339°
2026-05-05 04:31 42.74375 143.21133 481 ft 21 kts 261°
2026-05-05 04:32 42.74316 143.21030 479 ft 11 kts 193°
2026-05-05 04:32 42.74230 143.21057 482 ft 15 kts 159°
2026-05-05 04:32 42.74122 143.21110 481 ft 18 kts 158°
2026-05-05 04:32 42.73994 143.21177 482 ft 22 kts 160°
2026-05-05 04:33 42.73843 143.21253 485 ft 25 kts 159°
2026-05-05 04:33 42.73683 143.21336 491 ft 24 kts 158°
2026-05-05 04:33 42.73544 143.21405 488 ft 20 kts 159°
2026-05-05 04:33 42.73415 143.21475 499 ft 20 kts 158°
2026-05-05 04:34 42.73334 143.21480 500 ft 11 kts 234°
2026-05-05 04:34 42.73307 143.21394 500 ft 5 kts 250°
2026-05-05 04:34 42.73298 143.21363 500 ft 3 kts 249°
2026-05-05 04:34 42.73289 143.21332 500 ft 3 kts 249°
2026-05-05 04:35 42.73287 143.21323 500 ft 0 kts 249°